Sterling, IL

5:05 PM CST on November 13, 2019 (GMT -0600)
Whiteside County-Bittorf

Weather History for KSQI - September, 2019

Change the Weather History Date:

Sunday, September 15, 2019

  Actual Average Record
Temperature  
Mean Temperature 66 °F -  
Max Temperature 68 °F 73 °F 89 °F (2017)
Min Temperature 64 °F 50 °F 33 °F (2007)
Cooling Degree Days 1    
Growing Degree Days 16 (Base 50)    
Moisture  
Dew Point 65 °F    
Average Humidity 95    
Maximum Humidity 100    
Minimum Humidity 87    
Precipitation  
Precipitation 0.19 in - - ()
Sea Level Pressure  
Sea Level Pressure 30.00 in    
Wind  
Wind Speed 4 mph ()    
Max Wind Speed 10 mph    
Max Gust Speed 18 mph    
Visibility 7.3 miles    
Events Fog , Rain , Thunderstorm    
Averages and records for this station are not official NWS values.
T = Trace of Precipitation, MM = Missing Value Source: Averaged Metar Reports

Daily Weather History Graph

Daily Weather History Graph

Search for Another Location

Airport or City:

Astronomy

Sep. 15, 2019 Rise Set
Actual Time 6:38 AM CDT 7:08 PM CDT
Civil Twilight 6:10 AM CDT 7:36 PM CDT
Nautical Twilight 5:37 AM CDT 8:09 PM CDT
Astronomical Twilight 5:03 AM CDT 8:42 PM CDT
Moon 8:15 PM CDT (9/15) 7:49 AM CDT (9/15)
Length of Visible Light 13h 25m
Length of Day
12h 29m
Full, 98% of the Moon is Illuminated
Sep 15
Full
Sep 21
Last Quarter
Sep 28
New
Oct 5
First Quarter
Oct 13
Full

Hourly Weather History & Observations

Time (CDT) Temp. Dew Point Humidity Pressure Visibility Wind Dir Wind Speed Gust Speed Precip Events Conditions
12:56 AM 68.0 °F 64.0 °F 87% 29.69 in 10.0 mi Variable 3.5 mph - N/A   Mostly Cloudy
1:17 AM 68.0 °F 64.4 °F 88% 30.07 in 10.0 mi Calm Calm - 0.01 in Rain , Thunderstorm Light Rain
1:56 AM 66.9 °F 64.9 °F 93% - - North - - 0.01 in Thunderstorm Thunderstorm
2:14 AM - - N/A% - 2.0 mi North - - N/A Rain , Thunderstorm Heavy Thunderstorms and Rain
2:26 AM 66.2 °F 64.4 °F 94% 30.08 in 5.0 mi ENE 6.9 mph - N/A Rain , Thunderstorm Thunderstorms and Rain
2:56 AM 66.0 °F 64.9 °F 96% 29.67 in 10.0 mi ESE 4.6 mph - N/A Rain , Thunderstorm Light Rain
3:54 AM 66.2 °F 64.4 °F 94% 30.09 in 10.0 mi Calm Calm - 0.00 in Rain , Thunderstorm Light Rain
3:56 AM 66.0 °F 64.9 °F 96% 29.70 in 10.0 mi Calm Calm - 0.00 in Rain , Thunderstorm Light Rain
4:43 AM 64.4 °F 64.4 °F 100% 30.05 in 10.0 mi SE 8.1 mph - 0.01 in   Overcast
4:56 AM 64.9 °F 64.9 °F 100% 29.67 in 10.0 mi East 5.8 mph - 0.01 in Rain Light Rain
5:11 AM 66.2 °F 64.4 °F 94% 30.09 in 10.0 mi NE 5.8 mph - 0.00 in Rain Light Rain
5:19 AM 66.2 °F 64.4 °F 94% 30.11 in 10.0 mi North 4.6 mph - 0.00 in Thunderstorm Overcast
5:43 AM 64.4 °F 64.4 °F 100% - 4.0 mi North - - N/A Rain , Thunderstorm Heavy Thunderstorms and Rain
5:47 AM 64.4 °F 64.4 °F 100% - 4.0 mi North - - N/A Rain , Thunderstorm Thunderstorms and Rain
5:56 AM 64.9 °F 64.9 °F 100% - 4.0 mi North - - N/A Rain , Thunderstorm Heavy Thunderstorms and Rain
6:56 AM - - N/A% - 8.0 mi North - - N/A Rain , Thunderstorm Light Rain
7:09 AM - - N/A% - 5.0 mi North - - N/A Rain Rain
7:56 AM - - N/A% 30.05 in 3.0 mi SSE 6.9 mph - N/A Rain Heavy Rain
8:04 AM - - N/A% 30.05 in 2.5 mi Variable 4.6 mph - N/A Rain , Thunderstorm Heavy Rain
8:11 AM - - N/A% 30.05 in 3.0 mi SSE 5.8 mph - N/A Rain , Thunderstorm Heavy Thunderstorms and Rain
8:24 AM - - N/A% 30.06 in 10.0 mi South 8.1 mph - N/A Thunderstorm Overcast
8:49 AM - - N/A% 30.06 in 10.0 mi SSE 8.1 mph - N/A Thunderstorm Thunderstorm
8:56 AM - - N/A% 30.06 in 10.0 mi Variable 6.9 mph - N/A   Overcast
9:15 AM - - N/A% 30.06 in 10.0 mi Variable 6.9 mph - 0.00 in Rain Light Rain
9:56 AM - - N/A% 30.05 in 10.0 mi Variable 5.8 mph - 0.00 in   Overcast
10:56 AM - - N/A% 30.05 in 10.0 mi SSE 4.6 mph - N/A   Overcast
11:56 AM - - N/A% 30.05 in 10.0 mi Variable 4.6 mph - N/A   Overcast
12:23 PM - - N/A% 30.04 in 10.0 mi Variable 5.8 mph - N/A   Mostly Cloudy
12:56 PM - - N/A% 30.02 in 10.0 mi Variable 5.8 mph - N/A   Mostly Cloudy
1:24 PM - - N/A% 29.99 in 10.0 mi WSW 9.2 mph 18.4 mph 0.01 in   Scattered Clouds
1:43 PM - - N/A% 29.99 in 10.0 mi WSW 9.2 mph - 0.02 in   Mostly Cloudy
1:56 PM - - N/A% 29.98 in 10.0 mi SW 9.2 mph 16.1 mph 0.03 in   Mostly Cloudy
2:56 PM - - N/A% 29.97 in 10.0 mi WSW 10.4 mph - 0.02 in   Overcast
3:21 PM - - N/A% 29.97 in 10.0 mi WSW 8.1 mph - 0.01 in   Overcast
3:56 PM - - N/A% 29.97 in 10.0 mi West 10.4 mph - 0.02 in   Overcast
4:56 PM - - N/A% 29.98 in 10.0 mi WSW 4.6 mph - 0.02 in   Overcast
5:56 PM - - N/A% 29.99 in 10.0 mi WSW 3.5 mph - 0.02 in   Overcast
6:56 PM - - N/A% 29.99 in 10.0 mi Calm Calm - 0.02 in   Clear
7:20 PM - - N/A% 30.00 in 10.0 mi Calm Calm - N/A   Mostly Cloudy
7:56 PM - - N/A% 30.00 in 8.0 mi Calm Calm - 0.01 in   Overcast
8:09 PM - - N/A% 30.01 in 7.0 mi Calm Calm - 0.01 in   Scattered Clouds
8:33 PM - - N/A% 30.01 in 7.0 mi Calm Calm - 0.01 in   Mostly Cloudy
8:42 PM - - N/A% 30.01 in 8.0 mi Calm Calm - 0.01 in   Scattered Clouds
8:56 PM - - N/A% 30.02 in 8.0 mi Calm Calm - 0.01 in   Scattered Clouds
9:56 PM - - N/A% 30.03 in 6.0 mi Calm Calm - 0.01 in   Haze
10:44 PM - - N/A% 30.04 in 2.5 mi ENE 3.5 mph - 0.01 in   Clear
10:54 PM - - N/A% 30.04 in 5.0 mi Calm Calm - 0.01 in   Haze
10:56 PM - - N/A% 30.04 in 5.0 mi East 3.5 mph - 0.01 in   Haze
11:23 PM - - N/A% 30.03 in 0.8 mi Calm Calm - N/A   Clear
11:31 PM - - N/A% 30.03 in 0.2 mi Calm Calm - N/A Fog Fog
11:42 PM - - N/A% 30.03 in 0.2 mi Calm Calm - N/A Fog Fog
11:47 PM - - N/A% 30.03 in 0.8 mi Calm Calm - N/A   Mist
11:56 PM - - N/A% 30.03 in 0.8 mi Calm Calm - N/A   Mist